Theta_e
327 327 328 328 329 328 330 329 330 329 327 326 326 324 322 322 324 326 325 323 324 324 325 326 326 326 326 325 326 326 326 328 328 328 328 327 327 324 325 328 332 336 339 342 343 343 341 340 340 340 340 339 338 338 336 335 335 335 334 333 333 333 333 333 333 332 330 328 328 328 328 328 328 328 327 327 326 326 326 326 325 324 325 323 324
327 327 327 328 328 326 325 326 328 329 327 325 325 324 323 322 323 322 321 323 323 321 323 324 325 325 325 324 324 324 324 325 325 325 325 326 326 324 321 324 329 334 336 337 339 341 343 340 340 339 339 338 338 338 335 333 333 333 332 332 333 332 331 330 330 329 329 328 328 328 328 328 328 327 326 325 326 326 325 324 324 324 323 323 324
326 326 325 328 327 324 326 327 326 328 327 325 325 324 323 323 322 321 321 320 321 322 322 321 322 323 322 324 322 320 322 324 324 323 322 324 325 324 323 321 326 329 331 335 337 339 341 339 339 338 338 337 336 335 333 332 332 332 331 331 332 331 330 329 329 329 329 329 328 328 328 328 327 327 326 326 326 325 324 324 323 323 323 323 323
325 324 324 324 323 324 325 325 323 328 327 325 324 323 322 322 322 322 320 320 320 321 323 322 320 319 320 321 321 320 321 322 322 321 321 322 324 324 324 323 320 324 326 332 336 338 339 338 338 338 337 336 335 334 333 333 332 332 331 331 332 331 329 329 328 328 328 328 328 328 328 327 327 326 326 326 325 324 323 323 322 322 323 322 322
325 323 322 324 324 323 324 323 323 326 326 325 324 323 322 321 320 320 319 318 318 319 319 323 321 319 318 320 321 320 320 320 321 321 321 320 322 324 324 322 321 317 320 325 333 337 337 337 337 337 337 335 335 335 334 332 333 332 331 331 330 330 331 330 328 328 328 328 328 328 327 327 327 326 325 325 323 323 322 323 322 322 322 322 322
325 323 323 322 323 323 324 323 324 325 326 325 324 323 322 321 320 321 317 318 318 318 318 319 320 320 319 319 319 319 319 319 319 320 321 321 323 323 323 322 321 321 322 319 324 329 334 336 336 336 335 335 335 334 334 333 332 332 331 330 329 330 330 329 329 329 328 328 327 327 326 326 326 325 324 323 322 322 322 322 322 322 322 322 322
324 323 322 322 322 322 323 323 324 325 325 324 324 323 322 320 320 320 317 317 318 317 318 318 319 319 318 318 319 319 319 318 318 317 319 320 321 322 322 321 321 321 321 320 315 321 328 333 334 334 334 334 334 334 334 333 331 331 330 330 331 330 330 329 329 328 328 327 327 326 325 325 324 324 323 322 322 322 322 322 322 322 322 323 322
323 323 321 321 322 322 323 324 324 324 324 324 324 322 322 321 321 319 316 316 317 318 317 316 317 317 316 317 318 318 319 318 318 317 318 318 318 320 321 320 321 320 317 321 322 320 321 326 330 332 332 332 333 332 333 333 332 331 329 329 328 330 329 329 328 329 328 326 325 325 324 324 324 323 322 322 322 322 322 322 322 322 322 322 322
321 322 322 320 320 321 322 323 322 323 324 323 324 323 323 321 320 319 317 316 317 317 317 315 315 316 316 316 317 317 317 317 317 318 317 317 317 316 319 320 318 314 321 321 321 323 319 322 326 327 326 329 331 332 331 332 331 330 329 330 330 330 328 328 328 327 325 325 324 324 323 322 322 322 322 322 322 322 322 322 322 322 322 322 322
320 322 322 321 320 321 321 321 321 322 322 322 323 323 323 321 319 319 317 316 316 316 316 316 316 315 315 315 316 316 315 315 315 313 317 317 317 317 318 319 319 319 320 320 321 321 322 321 320 320 318 324 330 330 330 329 329 329 330 330 329 329 328 327 326 325 324 323 323 323 322 321 321 322 322 322 323 323 323 322 322 322 322 323 323
318 318 320 320 320 319 320 320 321 321 321 321 321 321 321 321 319 318 317 315 316 317 316 316 316 315 315 315 315 315 314 313 312 314 316 317 317 316 316 318 319 319 319 320 319 319 320 318 319 319 320 321 327 329 329 329 328 328 329 330 330 329 328 327 325 324 323 323 323 322 321 322 322 322 322 323 323 323 323 323 323 323 323 323 323
315 317 317 318 319 319 319 320 321 321 321 320 320 320 320 318 317 317 315 314 315 315 316 315 315 314 312 313 313 313 312 311 311 312 313 315 316 316 317 317 317 318 319 319 318 319 318 317 315 318 319 320 322 324 327 327 326 327 327 329 329 328 327 326 325 324 323 322 322 322 323 323 322 322 323 323 323 323 322 323 323 323 323 323 323
312 314 314 315 317 319 319 319 321 320 320 320 321 320 320 319 317 316 315 313 313 315 315 316 313 311 311 309 308 309 308 310 311 311 311 312 314 315 315 316 316 317 318 317 317 317 317 316 316 316 318 319 318 317 320 320 321 326 327 328 328 329 327 326 324 323 322 322 323 323 323 323 323 323 323 323 322 323 323 323 323 324 324 324 325
309 312 313 313 314 316 318 318 319 318 319 319 320 317 318 318 316 315 316 313 313 315 315 315 311 308 305 303 304 306 305 307 308 310 310 310 313 315 315 316 316 317 316 317 317 316 316 316 316 315 314 316 317 317 316 317 319 324 326 327 327 327 326 325 325 325 323 323 323 323 322 323 324 324 323 323 323 323 323 323 324 323 324 325 325
307 309 311 313 313 314 316 318 319 317 317 318 318 316 318 317 316 315 314 314 313 316 315 315 310 310 308 305 302 303 302 303 303 303 307 308 311 314 314 315 315 315 316 316 316 316 316 316 316 315 314 314 315 316 316 313 315 314 321 324 325 326 327 326 326 326 324 323 323 323 323 323 323 323 323 323 323 323 324 324 324 324 325 325 325
304 307 310 312 312 312 313 317 317 317 317 317 317 316 317 317 316 315 315 311 312 313 316 315 313 309 303 304 304 305 300 300 303 301 301 306 309 313 314 315 314 312 313 315 315 315 315 315 316 315 314 314 315 316 316 316 312 308 311 316 319 325 326 327 327 327 325 325 324 323 323 323 323 323 323 323 324 324 324 325 325 325 326 325 325
302 305 307 309 309 309 309 311 317 317 316 317 316 316 316 316 316 315 315 313 311 312 313 315 313 313 308 304 300 301 302 303 301 298 300 304 305 308 309 314 313 312 313 314 314 315 315 315 315 315 315 315 315 316 316 316 314 310 313 309 315 320 323 327 327 327 327 327 326 324 324 324 324 324 324 324 325 325 325 326 326 326 326 326 325
302 304 305 306 306 307 307 307 309 316 316 317 317 316 316 315 316 316 315 315 313 311 311 313 314 312 313 312 310 304 301 299 304 297 296 297 298 302 304 310 312 311 313 313 313 313 313 315 315 315 315 315 315 315 315 315 311 315 316 315 315 318 321 324 328 328 328 329 327 326 325 325 325 325 325 325 326 326 326 326 326 326 326 326 326
300 302 304 304 305 305 305 305 306 310 315 316 316 316 316 316 316 316 315 314 314 311 310 311 312 312 312 311 306 305 308 304 303 298 294 296 298 300 303 303 309 311 311 312 313 313 314 314 314 315 315 314 314 315 315 315 312 312 309 309 314 317 319 320 323 326 328 329 328 328 327 326 326 326 326 326 327 327 327 327 326 326 326 326 326
299 300 302 303 303 304 304 304 304 304 309 315 316 317 317 317 316 317 316 315 313 312 311 311 309 309 311 308 305 306 307 308 309 303 301 297 296 296 298 300 303 309 311 312 313 313 313 313 314 313 313 313 314 315 315 315 316 315 312 310 315 318 320 321 321 321 324 327 329 329 329 328 327 327 327 328 327 327 327 327 326 326 326 326 326
299 300 301 302 302 303 303 303 303 303 302 309 316 316 316 316 315 315 315 315 314 313 312 311 311 310 309 303 306 305 306 303 298 300 302 299 295 298 298 297 300 303 307 309 312 313 313 313 313 312 311 312 313 314 313 314 314 314 310 310 314 317 318 320 319 319 320 322 327 327 328 329 329 328 328 327 327 327 327 327 327 326 326 326 326
298 299 299 300 301 302 302 302 302 302 300 302 310 316 316 316 315 315 315 314 314 313 312 312 312 312 311 307 305 304 304 300 299 300 299 303 298 297 299 298 299 298 296 302 308 311 312 312 311 312 312 312 312 312 313 313 312 311 310 308 312 314 317 318 318 318 318 320 321 324 327 327 328 328 328 328 327 327 327 326 325 324 325 325 324
297 297 298 299 299 300 301 301 302 300 300 302 303 313 316 316 316 315 315 314 313 312 311 312 312 311 310 308 307 306 304 302 302 301 300 294 296 299 300 301 303 297 296 297 302 307 310 310 311 310 311 311 310 311 311 312 306 307 304 307 310 312 315 316 315 315 314 315 318 321 324 324 326 327 328 328 328 328 327 325 324 323 324 324 323
295 296 295 297 298 299 299 300 300 301 300 301 302 306 315 316 316 315 314 315 314 312 312 311 310 311 309 308 308 308 306 305 304 303 302 300 301 299 299 299 298 294 293 295 298 301 305 308 307 308 310 309 309 309 309 310 309 303 303 303 308 310 313 314 313 313 314 313 314 316 321 323 324 324 325 325 326 326 324 323 323 323 323 323 323
292 293 294 295 297 297 297 298 299 300 300 301 301 302 311 315 315 314 314 314 313 312 311 311 311 310 309 308 309 308 307 307 307 305 303 302 301 297 298 302 298 293 292 294 290 293 296 299 303 304 302 306 306 306 306 307 307 302 303 300 306 308 310 312 312 313 312 312 312 313 317 320 320 321 324 324 323 323 323 322 322 323 324 323 322
292 292 294 295 296 297 297 298 299 299 300 300 301 302 304 314 314 313 313 314 313 312 312 311 311 311 309 307 308 308 308 308 307 305 302 301 299 299 298 297 298 294 292 293 294 296 295 294 294 299 296 301 302 302 302 303 302 299 301 302 303 305 308 312 312 312 311 311 311 311 312 315 320 321 322 324 322 323 323 322 323 323 323 323 322
293 293 294 295 296 297 297 297 297 298 299 300 300 301 303 308 313 313 312 313 312 312 311 311 310 309 307 307 307 307 308 308 307 305 304 303 302 301 300 295 293 293 293 293 293 302 298 292 293 294 295 295 298 298 299 298 299 297 296 302 302 302 305 309 312 312 311 310 310 311 311 312 316 319 320 319 322 322 321 321 322 323 322 322 321
292 293 294 295 295 295 296 296 296 297 298 298 299 300 301 305 312 312 312 312 312 311 311 310 310 309 307 306 305 306 308 308 308 306 305 305 304 304 303 300 295 290 294 292 293 296 296 294 292 292 290 294 294 295 295 296 297 296 294 296 298 300 304 307 310 311 312 311 310 310 310 311 313 315 316 316 316 316 316 318 320 319 319 319 319
293 293 293 294 295 295 295 295 295 295 296 297 298 299 301 303 310 311 311 312 311 310 310 309 310 309 307 305 305 306 307 308 307 306 305 305 305 305 305 303 301 296 292 293 293 295 293 296 293 292 291 291 292 292 293 293 294 294 294 295 295 297 302 306 309 311 312 311 311 311 310 311 312 313 313 314 314 315 317 317 317 318 318 318 319
293 294 293 293 293 292 293 293 293 294 295 296 297 299 300 302 307 310 311 311 310 310 310 309 309 309 307 305 305 305 306 307 306 306 305 305 305 305 305 305 304 300 297 295 294 297 294 294 294 290 290 290 291 292 293 292 293 294 294 294 295 296 301 303 308 310 310 311 311 311 310 310 311 311 311 312 314 315 316 315 315 315 316 316 317
291 292 292 292 291 291 291 292 293 293 294 295 296 297 300 301 305 310 311 310 310 309 310 309 308 308 306 304 304 304 305 306 306 305 304 304 305 305 304 304 298 303 301 300 294 296 297 294 295 290 290 289 291 291 292 292 293 295 294 295 295 297 300 302 305 308 309 310 310 310 310 310 310 310 310 311 313 314 314 313 313 313 314 315 315
289 291 291 291 290 290 290 291 292 292 293 294 295 296 298 300 303 309 310 310 309 309 309 309 308 308 306 304 303 303 303 304 304 304 304 304 305 304 304 302 301 298 301 301 298 295 297 298 295 291 290 290 291 291 292 291 292 293 294 295 295 296 297 295 303 306 307 309 310 310 310 310 310 310 310 310 312 312 312 311 312 312 313 313 313
287 287 290 291 291 290 290 290 291 291 292 292 294 295 297 299 301 307 309 309 308 307 307 307 307 307 306 305 303 303 303 302 303 303 303 303 304 304 304 303 301 298 299 299 298 293 291 292 292 291 291 292 291 292 292 291 291 293 294 294 294 296 296 298 301 301 305 307 308 309 309 309 309 309 309 310 310 311 310 311 311 310 310 312 312
283 284 284 288 291 290 290 290 291 291 291 292 293 294 295 297 299 304 309 308 308 308 307 306 306 307 306 304 302 302 302 303 301 301 302 302 303 303 303 302 301 299 299 297 295 294 291 288 289 291 292 294 291 293 293 291 291 291 292 293 293 293 295 295 297 300 303 305 307 308 308 308 309 309 309 309 309 309 309 310 308 308 309 310 310
281 282 283 285 288 290 290 290 290 290 291 291 292 293 294 295 298 301 307 309 308 307 306 306 306 306 305 303 302 301 302 301 300 300 300 302 303 303 302 302 301 299 298 298 294 293 290 288 289 289 290 291 292 292 293 293 293 294 293 292 292 292 291 292 295 295 302 305 307 307 307 308 308 308 308 307 307 308 308 308 307 307 308 308 309
280 281 283 284 286 289 289 289 289 289 290 290 291 292 293 295 297 300 305 308 309 308 307 307 306 306 304 303 301 301 300 300 299 299 299 301 302 302 302 301 301 299 298 296 296 293 291 288 288 289 289 290 289 292 292 293 294 294 295 291 290 291 290 291 292 293 300 305 305 306 306 306 306 307 306 306 307 307 307 306 306 306 306 306 306
279 280 281 283 285 287 289 289 289 289 289 290 290 291 292 294 296 299 303 307 308 307 307 307 304 306 305 303 302 300 300 299 298 298 299 299 300 301 301 301 301 300 298 296 294 294 292 289 288 287 289 288 290 292 292 292 291 290 290 291 292 291 289 288 290 293 299 303 303 303 304 305 305 305 306 306 306 306 306 306 306 305 304 304 304
278 278 279 280 282 284 288 289 289 288 289 289 289 290 291 293 295 297 300 306 308 308 307 306 306 306 305 304 302 301 300 299 298 299 299 298 299 299 300 300 300 299 297 295 293 292 292 290 288 287 287 288 289 290 292 293 292 289 289 288 288 288 289 289 290 292 294 295 296 299 300 301 302 304 304 305 305 305 305 305 304 303 301 301 302
277 277 277 278 280 283 286 288 288 288 288 289 289 289 290 291 293 295 298 303 307 308 307 307 306 306 306 305 303 302 301 301 299 299 299 298 298 298 299 299 299 298 295 293 292 291 290 289 288 288 287 288 290 289 291 292 293 293 290 289 288 285 287 290 290 288 290 292 294 298 297 297 299 299 301 302 303 303 303 303 303 302 299 300 301
276 276 277 277 278 281 284 287 288 288 288 288 288 289 289 290 292 294 297 301 305 307 306 307 306 306 306 306 304 303 303 302 301 300 300 298 298 297 298 298 297 295 293 291 290 290 289 288 288 287 287 287 286 288 289 289 289 289 290 291 289 287 288 288 289 290 289 290 291 291 295 297 297 299 300 301 301 302 301 301 300 299 297 299 300
276 276 277 277 277 278 281 285 287 287 288 288 288 288 289 290 292 294 296 299 304 305 306 306 306 306 306 306 305 305 302 299 297 298 299 298 298 295 296 296 294 294 292 291 291 290 289 288 287 287 287 287 287 287 287 288 289 289 290 290 289 289 288 288 286 287 288 290 288 289 290 291 291 292 292 292 294 297 297 297 297 295 296 299 300
275 276 276 277 277 278 279 280 283 285 287 288 288 289 290 289 290 292 294 297 302 305 304 304 304 305 305 306 305 299 297 296 295 296 297 297 297 298 296 295 293 293 292 291 290 290 289 288 287 286 286 286 286 287 288 289 290 290 289 288 287 286 287 287 286 284 287 289 289 288 288 288 290 288 289 290 291 292 291 292 293 294 296 299 300
275 276 277 276 277 278 279 279 281 282 285 287 289 290 291 291 291 291 292 294 299 304 304 303 303 303 304 305 306 299 297 296 296 296 297 297 296 296 295 295 294 293 292 291 290 290 289 288 287 287 287 286 287 288 289 289 290 289 288 288 287 287 286 286 286 286 285 289 289 288 287 286 289 288 288 288 289 288 289 290 294 295 297 299 299
275 276 277 276 277 277 278 279 280 282 284 287 289 290 291 291 291 290 292 293 296 303 304 304 304 303 304 305 305 304 302 300 300 298 297 296 296 295 295 294 294 295 295 293 291 289 289 288 287 287 287 287 287 288 289 289 288 288 288 288 287 287 287 287 287 286 289 289 288 287 286 283 286 288 287 288 288 288 289 291 295 296 298 299 299
274 275 275 276 277 277 278 278 279 281 283 287 289 290 291 291 292 291 291 293 295 299 303 304 304 303 303 303 303 304 303 296 297 300 299 297 295 295 294 294 294 295 295 295 294 292 291 290 288 288 288 288 287 288 289 289 289 288 287 287 287 288 288 288 288 288 288 289 288 286 285 285 285 286 287 287 287 287 289 293 296 297 298 298 298
271 274 276 276 277 277 277 278 279 281 283 286 288 290 290 291 291 291 291 292 294 298 302 303 304 303 303 302 302 302 302 298 299 300 299 298 295 294 294 294 293 293 294 294 293 293 292 291 290 289 290 290 289 289 290 290 289 288 287 287 288 288 288 288 289 288 288 289 288 286 284 284 285 286 285 285 286 287 287 291 295 296 297 298 298
270 273 276 276 277 277 278 278 279 280 282 286 288 289 290 291 291 291 291 292 294 297 302 303 303 303 303 304 302 302 301 299 299 299 299 297 294 293 292 292 292 293 293 293 293 293 292 292 291 291 291 291 291 291 290 290 289 290 289 288 288 288 287 286 286 286 287 288 286 286 283 285 285 285 285 284 285 286 285 291 295 296 297 298 298
270 272 275 277 277 277 278 279 280 280 282 285 287 289 290 291 291 290 290 291 293 296 300 301 303 303 303 303 302 301 300 299 297 297 297 296 293 292 292 291 291 292 293 293 293 293 293 293 293 292 292 292 292 290 290 289 288 287 287 287 287 287 286 285 283 284 285 287 286 286 281 283 285 285 284 283 285 285 284 286 294 295 296 297 297
269 271 274 277 277 277 277 278 280 281 282 285 287 288 289 291 291 289 289 290 292 295 299 301 302 302 302 302 302 302 300 299 296 298 298 295 293 292 292 290 290 290 291 292 293 294 294 294 294 294 294 294 294 294 293 293 290 288 288 287 286 287 286 283 281 283 284 286 286 286 283 282 284 284 281 282 284 284 284 285 288 294 295 296 297
269 270 272 275 277 278 278 279 281 282 283 285 287 289 290 291 290 288 289 290 291 294 298 300 302 302 301 297 299 302 300 299 297 298 297 294 293 292 291 290 290 290 290 290 291 292 293 293 293 293 293 294 293 294 294 293 293 291 289 287 287 288 286 285 283 283 285 286 287 286 283 282 283 282 280 279 281 278 283 284 286 289 294 295 296
269 271 273 275 277 279 280 281 282 283 284 286 288 289 290 291 290 289 289 290 291 294 297 298 299 300 300 296 296 299 300 299 297 298 297 295 293 292 292 291 290 290 291 290 290 289 289 289 290 291 290 291 291 291 291 293 292 291 290 290 289 288 287 286 285 284 283 284 287 287 284 281 283 282 282 278 277 277 281 283 285 287 289 289 292
Wind_Speed
8 8 8 9 9 8 10 9 9 7 7 7 8 8 7 7 6 7 6 5 6 8 9 10 10 6 7 9 8 7 7 7 6 6 7 7 6 8 11 9 5 6 14 21 24 30 30 30 31 30 30 29 27 27 27 26 24 23 22 20 21 22 21 19 18 18 21 20 18 19 18 18 19 19 20 19 18 18 19 19 18 18 17 17 16
8 7 6 8 9 7 5 7 7 8 8 8 8 9 9 7 6 6 4 5 7 2 2 6 7 7 7 8 8 8 7 7 6 5 5 6 7 8 12 11 7 4 11 16 23 25 32 31 29 28 28 27 28 27 26 24 24 24 23 22 22 21 19 20 19 19 19 20 21 19 19 20 19 19 20 20 18 18 20 19 18 18 18 16 16
10 8 6 7 8 7 10 10 8 8 8 9 8 10 9 9 9 9 9 5 7 7 5 4 2 4 6 7 9 6 6 7 6 6 5 5 5 5 9 13 11 8 5 11 17 24 24 30 29 28 27 28 27 27 26 24 24 23 22 23 23 22 21 20 21 21 22 22 21 21 21 21 20 20 19 19 19 20 19 18 18 18 19 18 17
12 9 7 6 7 9 11 8 5 8 9 9 10 10 10 9 9 9 7 8 7 7 9 9 5 0 1 5 6 8 6 7 7 6 5 4 5 5 5 6 10 10 7 14 18 23 25 26 25 26 25 28 29 28 27 25 24 24 23 25 25 24 22 21 20 21 22 23 22 21 20 20 20 20 20 19 19 19 19 19 19 19 19 19 19
11 13 9 7 8 7 9 7 9 7 9 11 12 10 9 8 7 6 6 6 5 5 4 9 10 6 2 2 6 7 5 7 8 7 6 4 3 4 4 5 4 8 7 7 18 23 27 27 30 29 30 30 29 28 28 27 25 24 24 24 25 24 24 23 21 22 23 23 23 22 21 21 21 20 20 20 20 19 19 19 19 18 19 19 18
11 12 11 9 9 10 11 9 9 9 10 11 11 10 11 11 10 9 8 8 8 6 7 8 9 10 6 4 4 6 5 7 6 6 6 6 6 5 5 5 5 4 5 3 10 14 20 28 30 29 30 30 28 26 27 27 26 25 25 25 26 24 23 23 23 24 24 24 23 22 22 22 21 20 20 20 19 19 19 19 19 19 19 18 19
12 12 13 11 9 10 10 9 9 10 11 11 11 10 11 12 11 10 8 7 8 7 7 6 9 11 10 7 7 7 6 6 5 4 5 5 5 6 6 5 5 5 5 3 6 12 7 16 23 29 29 29 29 29 28 28 27 25 24 25 25 25 24 23 23 24 24 24 23 23 21 20 20 20 20 20 19 19 20 20 19 20 19 18 19
14 13 12 11 10 10 12 11 11 8 10 11 11 11 10 10 11 12 11 10 10 9 6 6 6 8 7 7 6 7 7 6 6 5 5 5 5 6 6 6 6 6 6 6 4 10 9 7 10 18 26 28 26 26 27 27 26 26 25 25 25 25 24 24 24 24 24 22 20 21 21 20 20 20 20 20 20 21 21 20 20 19 19 18 17
13 13 13 11 10 10 11 11 10 9 10 12 12 12 12 11 11 11 13 13 12 12 10 8 8 7 7 8 6 6 7 7 6 6 5 4 5 4 5 7 6 7 6 6 5 7 11 11 11 10 17 21 26 26 25 26 26 25 26 25 25 25 24 25 25 24 21 22 21 22 21 21 21 21 22 22 23 22 22 21 19 18 17 17 16
14 12 12 13 12 11 11 10 8 8 10 12 12 12 13 13 13 12 12 12 12 11 12 9 8 8 7 8 7 6 6 6 5 5 6 6 5 4 4 5 7 6 6 7 7 7 9 12 13 14 16 17 20 25 26 26 25 25 26 26 26 26 24 24 23 23 23 23 22 22 22 22 23 23 24 23 22 21 21 20 19 18 18 16 14
15 14 12 13 14 14 13 12 10 10 9 13 11 12 13 13 14 13 12 13 14 13 12 11 9 8 8 8 7 6 5 5 5 5 5 6 6 5 4 4 5 7 7 8 8 7 10 7 7 6 10 17 20 22 23 25 25 25 26 27 26 26 25 25 24 23 23 23 23 24 24 23 24 24 24 22 22 22 21 20 19 18 15 14 13
15 14 13 13 14 13 12 10 12 11 12 11 12 12 16 16 15 16 15 12 10 9 9 9 9 7 7 5 4 5 5 5 4 4 4 5 6 5 5 4 5 7 8 8 8 9 8 8 6 7 8 13 17 19 21 21 22 24 24 26 26 25 25 25 24 23 23 25 25 24 24 24 24 25 24 22 21 21 20 19 17 15 14 13 12
14 14 14 13 12 14 11 12 11 13 14 14 15 15 15 15 14 14 17 14 11 11 10 12 12 10 8 7 5 4 4 5 6 5 4 4 5 6 5 6 5 7 8 7 9 9 9 8 7 6 8 9 11 14 15 15 18 23 25 25 26 25 24 24 25 25 25 25 24 24 23 24 24 23 22 22 22 21 19 17 17 14 14 14 12
13 13 13 11 12 12 13 9 11 11 13 12 12 13 15 14 14 13 14 19 15 16 14 13 11 13 12 7 5 5 5 4 4 5 5 4 5 7 5 7 7 6 7 9 9 9 10 8 7 6 6 7 8 8 9 11 12 20 22 24 24 24 25 25 25 26 25 25 25 25 25 23 23 23 23 22 21 19 17 16 16 15 14 10 10
12 13 12 12 11 12 12 12 12 10 10 12 14 13 14 16 17 16 13 11 11 13 17 18 15 12 11 11 7 9 1 2 2 1 0 3 5 7 7 7 8 7 8 9 10 10 9 9 9 8 7 7 8 8 8 9 12 16 17 20 23 25 26 26 26 26 25 25 26 25 26 25 24 24 22 21 19 17 16 16 16 15 12 9 9
13 13 12 12 11 11 13 13 10 11 12 14 14 16 15 15 15 17 16 14 12 14 16 16 14 17 14 13 11 10 10 8 8 1 2 3 5 8 8 8 7 6 5 10 10 10 10 9 11 10 8 8 8 9 9 8 15 17 18 18 20 24 27 27 27 26 25 25 24 25 25 24 22 21 20 19 18 17 16 15 14 12 10 9 9
11 13 11 12 10 9 11 14 14 12 9 11 14 16 15 14 17 16 18 17 13 12 13 13 14 18 16 10 6 8 13 10 10 1 1 4 4 4 6 10 9 8 8 7 8 10 11 9 9 9 9 9 9 9 10 11 10 9 14 17 19 21 24 28 28 27 26 25 23 23 22 21 21 20 19 18 17 16 15 14 12 11 10 9 7
10 11 13 11 10 9 8 11 14 13 14 13 12 13 15 14 16 16 18 17 18 15 13 14 16 16 13 16 18 16 13 8 14 7 1 1 1 3 3 7 9 9 9 8 9 8 9 11 9 9 9 9 9 10 10 9 9 9 9 14 21 21 21 25 28 27 26 24 23 23 22 21 20 19 19 18 17 16 15 14 12 11 10 9 9
9 9 11 13 12 10 9 8 12 15 13 13 12 14 16 17 15 16 17 15 16 18 20 17 14 14 12 9 2 3 11 19 14 8 7 0 1 3 5 4 7 11 9 11 11 10 9 9 11 10 10 9 9 9 9 9 12 10 14 18 21 20 20 21 23 25 25 25 23 23 22 21 20 19 18 17 17 16 14 13 12 12 11 11 13
8 8 10 12 12 11 9 8 10 13 13 12 14 14 14 15 18 19 16 14 15 17 18 16 17 16 14 8 3 4 11 14 21 21 17 15 6 3 1 1 3 7 10 12 12 13 12 9 10 10 8 9 9 8 9 9 9 10 10 17 20 20 20 20 21 21 21 23 23 23 22 21 21 20 19 17 16 15 14 14 14 14 14 13 16
7 7 8 11 11 11 9 8 9 12 12 14 14 15 16 16 19 18 18 17 17 16 17 17 17 18 15 7 7 8 11 6 3 4 16 14 8 11 9 2 0 3 7 8 11 12 12 11 11 10 9 10 9 9 9 8 9 9 10 16 16 17 17 19 20 19 19 19 21 22 22 22 21 20 18 17 16 16 17 17 17 17 17 17 17
6 7 6 8 10 10 9 8 8 9 10 14 18 16 17 18 18 19 19 20 15 16 17 18 17 17 19 14 11 10 11 5 6 9 6 19 19 13 12 12 12 5 1 4 8 12 11 10 11 10 10 9 9 9 9 10 9 8 10 15 15 15 15 14 14 13 15 17 18 19 20 20 20 19 19 18 18 18 17 17 18 17 17 17 16
5 6 6 7 8 8 9 9 7 7 10 12 16 16 16 18 19 21 22 22 18 17 17 17 16 16 17 15 16 19 19 19 16 12 13 6 7 15 13 12 13 10 3 1 6 8 11 10 10 10 10 10 9 9 9 10 11 10 14 14 13 14 14 13 13 13 11 10 10 11 14 15 16 18 18 19 18 20 20 18 16 16 16 16 14
5 5 6 6 7 7 7 8 7 7 9 10 13 17 16 16 19 19 19 21 19 19 17 17 19 16 18 14 14 14 13 12 13 14 13 13 16 14 12 7 6 3 2 1 2 5 8 11 9 11 11 10 9 8 9 10 11 16 13 13 13 13 14 13 13 13 12 12 12 12 14 15 17 17 16 17 19 19 18 17 16 16 16 15 15
6 6 6 6 6 6 6 7 8 7 8 11 12 17 19 14 14 22 21 22 20 20 18 20 21 18 19 15 13 13 14 12 13 13 10 10 12 13 9 12 13 6 2 2 2 2 2 4 7 8 9 10 9 8 8 9 9 15 16 12 15 13 13 14 13 14 13 13 12 12 12 9 13 13 13 15 18 18 17 17 16 17 18 17 16
7 7 7 6 5 6 6 6 7 9 9 10 12 14 17 16 13 12 17 20 19 22 20 20 19 19 16 14 14 15 14 13 14 13 14 15 14 18 14 6 9 10 4 3 4 7 1 0 0 6 6 8 9 8 8 8 8 15 18 12 13 15 15 14 13 12 12 12 12 11 11 10 11 15 15 16 18 18 18 17 17 18 17 17 17
8 7 6 6 7 6 6 5 5 8 9 10 12 13 14 19 16 20 16 13 17 20 19 21 20 19 17 16 15 14 15 14 14 14 14 16 16 15 16 15 7 8 8 2 4 13 11 1 1 3 8 6 8 8 8 7 9 14 13 11 8 14 14 14 13 13 12 12 12 12 12 12 13 15 15 16 14 14 17 18 18 18 17 17 17
7 6 7 7 7 7 7 6 5 6 8 10 12 12 14 18 20 18 19 16 18 22 18 20 22 22 19 14 11 14 14 15 15 15 14 15 15 15 16 18 17 10 8 6 5 5 6 10 1 2 4 7 8 8 8 10 8 13 12 7 7 9 13 15 15 14 13 13 12 13 13 14 15 16 16 15 14 12 14 15 16 15 15 14 14
8 6 7 6 7 7 7 7 5 5 7 9 11 12 14 16 15 16 19 18 17 19 16 18 19 18 16 19 16 13 14 15 14 14 13 14 16 16 16 19 19 18 12 13 11 8 5 5 10 6 3 3 7 7 8 7 9 11 8 8 8 8 11 14 14 14 14 14 13 14 14 15 16 16 16 16 13 13 15 14 14 14 13 12 12
15 10 7 8 7 7 7 7 6 5 6 8 10 12 13 13 15 12 14 16 18 17 17 17 17 16 16 15 12 13 13 15 16 15 14 15 15 16 16 14 15 19 17 18 11 6 8 4 2 7 6 7 5 5 6 7 10 11 7 7 8 8 11 13 13 13 14 14 14 15 15 15 16 16 16 15 14 16 16 15 15 17 15 17 17
15 12 8 7 6 6 6 7 7 6 6 7 9 11 12 13 15 15 15 15 14 15 17 18 16 17 17 17 13 12 13 15 15 15 14 14 15 15 13 13 8 14 18 15 14 6 8 12 6 3 9 7 7 7 6 6 9 10 7 7 7 10 12 10 13 13 14 15 15 15 15 16 15 16 16 16 17 18 18 18 18 17 18 18 19
14 16 10 9 7 7 6 7 7 6 6 7 8 11 11 12 14 15 14 17 18 18 17 17 15 17 18 18 16 14 13 13 15 15 15 14 14 14 14 13 12 4 9 15 17 14 9 11 10 8 9 8 6 8 7 5 7 12 7 7 7 10 7 6 12 14 14 15 15 15 16 16 17 17 18 18 19 20 19 19 18 17 17 18 19
13 15 15 12 10 8 7 7 7 7 6 7 7 9 11 13 14 15 15 16 16 14 16 18 17 20 20 19 17 15 15 15 13 14 15 15 15 14 13 13 11 8 9 11 16 10 4 4 8 9 10 11 8 7 9 8 7 5 6 7 7 7 7 8 7 12 13 14 15 16 17 18 19 19 20 20 20 20 19 18 18 17 17 18 19
13 14 15 16 12 10 8 7 7 7 7 7 7 8 10 12 15 14 14 17 17 17 14 16 17 17 19 20 18 16 15 17 16 15 15 16 15 14 14 14 13 11 10 8 8 15 11 4 6 4 7 10 9 7 11 10 8 6 7 6 5 6 7 7 7 8 14 14 16 17 18 19 19 20 20 20 20 20 20 19 18 18 18 18 17
14 12 13 13 15 12 8 7 7 6 7 7 7 8 10 12 14 15 15 18 19 18 19 19 19 18 19 19 19 17 14 15 15 15 14 16 15 16 16 13 14 12 10 10 11 10 14 7 8 10 8 7 9 8 6 7 8 8 10 7 7 5 4 6 7 5 12 15 16 17 18 19 19 20 20 20 19 20 20 20 19 18 18 18 18
15 15 13 13 14 13 10 7 7 7 6 7 8 8 11 12 13 14 15 16 20 21 21 21 20 19 20 19 19 18 18 18 16 14 13 14 15 15 16 14 14 14 12 9 13 12 7 11 6 10 9 11 3 4 5 6 10 9 9 6 5 6 5 5 6 6 10 16 17 17 18 19 19 20 20 20 19 19 19 19 19 18 18 18 18
16 15 15 13 12 14 12 9 7 6 6 6 8 9 10 11 13 13 15 14 14 18 20 21 21 21 21 21 20 19 19 18 16 15 14 16 15 15 16 14 13 13 11 10 10 13 13 12 8 5 9 4 3 8 11 11 5 5 4 6 7 8 6 4 4 6 10 15 16 17 17 18 19 19 20 19 19 19 19 19 19 18 18 18 18
15 14 14 14 11 14 13 9 7 7 6 6 7 8 10 11 12 13 14 14 16 16 16 18 20 20 20 21 20 20 20 20 18 17 16 17 15 15 16 14 13 13 13 12 12 12 14 13 14 7 7 10 6 5 7 11 13 8 6 5 4 4 7 6 4 4 5 6 6 9 13 15 17 19 19 19 19 20 19 19 19 19 19 18 18
14 14 14 14 14 12 14 12 9 8 8 7 7 8 10 11 12 13 14 15 15 16 18 20 20 21 21 20 20 21 22 21 21 19 18 17 15 16 16 16 14 14 13 12 13 13 13 13 10 13 13 7 11 12 8 6 9 13 15 9 5 1 3 8 8 3 4 5 5 9 9 10 13 12 16 18 18 19 20 20 19 20 19 19 19
14 12 12 14 14 13 14 12 10 8 9 9 8 8 9 11 11 12 14 15 15 16 17 19 21 21 21 21 22 22 23 21 21 20 21 18 16 15 14 15 15 15 13 12 12 13 13 13 13 10 9 11 5 3 6 8 7 2 4 11 15 10 8 5 5 10 5 7 8 6 7 9 10 12 15 16 18 19 19 19 19 19 20 19 20
13 12 10 12 14 16 14 13 11 10 10 10 9 7 9 11 11 12 13 15 15 16 17 18 19 20 19 20 20 21 22 23 26 24 23 21 17 16 15 16 15 15 14 13 13 13 12 13 11 10 12 11 12 14 11 11 12 13 10 8 10 11 10 8 3 1 5 10 6 7 6 8 9 8 7 7 8 14 15 16 15 20 20 20 20
17 14 13 12 14 16 15 16 14 13 11 9 11 16 14 11 12 12 12 14 14 15 17 16 16 19 20 19 19 26 26 26 26 27 27 25 23 19 16 15 17 16 16 15 14 14 14 14 14 14 12 12 12 14 15 13 13 11 12 9 11 8 8 7 4 2 4 9 10 9 7 5 9 7 7 9 7 10 8 10 11 13 17 21 21
16 16 14 14 12 13 14 14 14 14 13 12 18 18 18 19 14 12 12 13 15 14 16 17 16 17 17 19 18 22 24 23 23 28 27 27 24 23 23 21 18 18 17 17 15 15 15 14 13 14 15 15 15 15 16 17 14 15 14 13 14 14 14 15 13 4 4 9 11 11 8 6 8 11 8 8 8 8 7 9 11 16 19 19 20
15 14 13 13 14 13 14 15 15 14 13 16 21 21 19 19 16 13 12 12 14 13 16 18 17 17 18 17 16 16 18 20 19 21 24 27 26 24 25 25 24 24 24 20 17 14 16 15 15 16 15 16 16 15 14 14 13 12 12 12 13 16 15 14 13 15 12 11 10 10 9 3 4 9 9 9 9 9 9 11 15 15 18 19 20
15 17 15 15 14 13 14 16 16 15 15 18 22 22 20 19 18 17 12 12 13 14 14 18 18 18 17 16 16 15 16 24 20 19 19 20 24 28 26 26 26 27 26 29 30 25 20 19 19 17 18 17 18 18 18 19 17 18 15 13 13 14 16 16 13 12 12 15 13 12 12 9 6 8 10 8 8 8 9 14 19 19 20 21 22
17 17 17 15 14 14 15 16 16 15 16 18 23 22 19 19 19 17 13 13 13 15 15 16 17 18 19 17 16 16 15 16 16 17 17 18 17 18 18 18 17 22 26 28 28 27 24 20 20 22 19 19 21 20 18 18 20 19 18 17 17 16 17 19 14 10 12 15 17 14 9 9 9 10 10 9 8 8 9 12 19 19 20 21 21
16 18 16 14 13 13 13 14 15 16 14 23 24 23 20 20 20 17 12 13 13 14 14 15 17 18 19 19 18 17 16 16 17 19 18 18 18 18 18 17 16 16 16 16 17 16 15 13 16 17 17 15 14 14 14 13 16 14 15 16 17 13 7 8 10 8 9 9 6 10 13 13 9 9 9 8 8 8 7 11 19 19 21 21 21
15 16 17 15 14 13 14 14 14 16 16 26 25 23 22 20 20 12 11 12 13 14 14 14 16 17 17 18 17 17 17 17 21 27 23 19 20 21 20 17 14 13 14 15 19 18 17 15 15 16 16 17 17 16 16 14 11 9 10 11 10 9 10 8 7 8 10 10 8 11 6 10 10 13 9 6 8 8 7 8 14 21 21 21 21
15 15 17 13 12 13 16 17 18 17 16 21 25 24 23 21 15 11 11 11 12 14 14 14 16 17 17 18 18 17 18 18 23 28 28 24 19 22 20 19 15 14 13 10 16 20 21 20 21 22 21 22 22 25 27 26 17 13 11 11 11 11 11 10 6 9 11 11 9 7 6 10 10 8 7 6 9 9 8 9 10 16 20 20 20
14 15 15 15 15 14 15 16 16 15 16 18 23 22 23 22 18 12 10 11 12 13 13 14 14 15 18 24 21 18 18 19 26 29 29 24 20 21 20 19 18 16 14 11 10 12 18 18 18 18 19 20 22 24 26 27 28 23 17 17 16 14 14 14 14 12 9 11 12 8 8 8 9 5 6 4 4 3 7 7 8 11 19 17 20
16 15 15 14 13 13 13 16 23 22 17 16 21 22 23 22 17 11 11 10 13 13 13 14 13 13 15 19 25 22 20 21 29 29 30 26 21 20 21 20 20 20 17 16 15 13 11 11 10 13 12 17 17 16 19 28 26 23 20 19 16 16 15 12 10 9 7 7 10 11 11 8 12 9 11 7 5 4 5 8 10 10 10 10 12
Wind_Direction
239 224 207 213 215 209 201 194 176 173 169 171 168 163 159 160 169 161 154 144 162 169 169 159 161 168 153 143 140 135 131 130 126 121 120 124 122 130 125 115 116 177 186 183 190 178 171 164 157 160 155 151 148 146 149 149 148 149 150 157 143 149 144 136 137 142 134 128 127 127 130 127 123 127 125 126 130 127 122 118 119 114 112 114 113
239 235 232 217 214 207 221 235 210 168 170 173 174 167 162 160 148 139 133 161 149 132 153 157 155 152 157 143 140 144 139 122 110 106 116 125 133 136 129 128 131 180 194 183 187 179 164 160 158 157 155 156 156 150 149 152 153 152 151 151 145 144 144 141 133 130 130 127 124 128 128 127 130 132 131 133 129 122 118 121 119 115 116 118 114
258 239 234 236 228 232 219 201 198 188 173 171 174 170 165 163 163 159 153 165 149 137 127 76 39 134 148 147 142 136 138 122 119 115 110 121 121 124 134 133 137 154 154 207 190 178 171 162 163 157 159 160 159 158 156 155 152 152 155 148 141 144 149 152 145 135 131 128 129 134 134 136 133 132 132 125 124 121 121 123 121 118 119 118 115
269 257 221 226 241 234 219 194 176 191 178 171 171 169 169 162 160 159 154 158 159 161 150 136 132 153 104 139 129 127 132 119 107 97 95 106 120 125 123 123 131 132 143 197 209 187 178 165 157 158 160 158 158 156 153 155 156 155 156 151 145 149 153 149 148 140 133 132 137 137 141 140 135 136 134 133 132 126 126 125 124 123 120 119 119
256 256 243 218 214 236 254 211 194 196 181 177 167 166 161 153 146 152 150 136 150 167 172 152 143 146 141 134 126 117 127 117 123 119 124 123 115 119 118 125 128 122 121 157 209 198 180 165 161 160 161 162 159 158 153 156 155 153 154 151 152 152 148 146 143 144 141 140 140 141 139 139 139 139 137 134 132 130 128 126 125 122 120 119 118
263 260 255 237 224 220 224 221 214 195 184 175 169 169 167 163 162 157 163 160 166 180 168 171 158 147 149 147 112 121 126 130 136 138 138 147 149 137 131 137 139 141 125 118 167 206 196 170 163 158 157 155 153 155 155 155 155 154 152 151 154 154 154 152 148 148 145 142 143 143 143 142 142 135 128 127 131 130 130 129 128 124 122 122 119
268 255 249 244 224 221 225 218 227 205 185 179 171 171 170 170 165 161 166 167 164 172 178 183 167 157 149 150 139 129 124 126 120 126 138 145 150 146 142 143 143 136 132 134 138 105 176 170 162 155 155 152 152 153 153 155 155 155 155 154 151 153 155 155 152 149 148 147 149 147 144 138 135 133 132 133 133 133 133 132 128 126 124 121 119
282 264 254 246 235 217 222 213 213 215 192 184 173 172 173 171 172 164 165 172 167 170 176 179 173 152 143 137 132 132 130 134 140 150 145 133 144 146 151 146 147 148 136 151 151 111 104 117 156 158 154 150 146 151 153 152 154 154 156 156 156 155 154 156 154 152 151 149 143 139 137 140 139 138 136 138 138 137 136 133 129 126 122 122 121
277 270 263 247 249 238 217 214 212 216 195 177 177 177 171 173 176 177 169 169 174 171 174 176 171 155 143 138 134 133 133 145 148 147 127 129 134 157 159 151 150 136 140 137 127 125 129 148 145 149 134 143 149 148 151 157 158 157 155 155 156 157 158 156 155 150 146 145 140 142 144 144 143 141 142 141 139 137 135 133 130 127 126 125 123
294 284 273 264 243 239 232 213 207 214 206 173 179 175 171 173 175 177 174 169 172 173 171 169 167 155 146 140 139 139 140 141 144 142 140 135 140 153 169 155 143 135 133 127 126 137 140 164 157 153 148 146 144 150 150 153 159 161 159 158 158 158 158 157 152 147 146 148 147 147 147 147 145 145 143 141 139 137 136 133 131 132 129 126 121
302 296 289 275 255 234 229 215 205 211 216 182 178 176 172 172 171 173 176 176 174 177 174 161 156 150 151 143 138 145 140 129 136 142 138 145 147 151 146 156 139 137 133 130 132 133 133 129 138 141 143 144 149 149 154 157 161 162 160 160 160 159 159 156 151 150 150 151 151 151 151 150 148 146 144 142 141 139 136 135 134 130 127 123 119
308 302 298 286 269 253 232 212 200 201 211 194 173 177 174 171 173 171 173 173 179 165 150 146 137 122 101 94 110 131 136 135 137 138 140 150 151 147 151 144 145 140 137 135 134 135 134 126 134 136 138 145 147 151 154 154 158 160 164 162 159 159 155 149 150 153 154 154 154 153 153 152 149 147 145 144 143 141 139 136 134 131 128 124 123
309 310 306 301 281 268 243 218 201 202 209 196 178 176 176 172 169 173 170 168 172 163 171 153 141 133 123 114 85 59 105 141 148 145 155 147 153 149 149 144 152 147 142 133 135 136 129 131 134 130 137 142 145 147 149 150 159 160 163 163 160 158 153 153 157 155 156 155 154 154 156 152 150 149 148 147 145 144 141 137 133 133 137 133 126
308 307 304 300 299 289 269 232 214 202 198 196 184 179 178 174 168 172 180 173 174 172 162 151 159 161 148 130 89 64 48 79 136 166 158 157 162 156 153 152 150 152 143 141 140 138 133 132 125 123 122 128 136 136 128 130 146 157 159 160 160 161 160 159 159 158 157 157 156 156 156 153 152 150 149 148 147 145 142 139 138 134 127 125 131
307 307 306 306 306 302 281 251 220 211 200 192 190 194 184 178 174 173 175 191 169 167 167 175 165 160 144 127 152 144 111 85 22 24 172 176 166 160 160 158 153 152 155 145 145 141 138 139 138 137 137 130 129 132 136 142 146 159 163 163 165 162 161 162 161 158 157 156 155 156 155 153 152 151 150 150 148 147 145 143 140 136 133 135 138
307 307 304 306 310 310 310 281 241 217 202 195 189 189 189 183 182 174 167 167 170 178 183 180 160 150 163 179 166 163 152 187 165 165 334 210 188 162 160 164 153 141 158 150 153 142 140 146 148 149 148 143 143 149 149 154 160 164 164 165 164 162 163 163 160 158 156 155 154 154 153 153 152 152 152 151 151 150 148 146 144 145 144 145 148
303 304 302 300 305 309 310 303 269 227 211 207 193 186 184 186 179 174 174 169 172 172 180 180 179 177 153 128 115 178 195 159 132 28 351 165 200 166 162 165 162 156 156 160 149 146 139 148 150 149 150 148 149 154 156 159 158 164 160 159 160 163 165 163 161 159 157 155 154 154 154 154 154 154 155 155 155 154 152 150 152 153 152 151 144
299 300 299 293 291 294 300 306 306 259 207 207 204 193 184 182 181 180 183 180 166 168 172 186 180 185 186 176 167 170 150 150 157 186 231 304 175 131 184 178 162 158 158 158 152 144 145 148 151 152 150 151 154 156 158 159 153 158 161 163 164 166 166 164 161 160 158 157 155 155 156 157 157 158 158 159 158 158 158 155 156 158 161 160 150
296 294 297 295 290 287 290 300 303 296 245 206 210 198 189 188 188 184 184 182 173 171 174 178 175 192 190 202 36 40 159 150 179 116 140 332 360 165 176 205 177 158 163 160 154 146 154 151 154 153 151 149 152 153 152 150 146 152 162 166 167 168 169 165 163 163 160 159 158 158 159 160 161 161 162 162 163 163 160 160 162 160 160 158 142
290 293 297 297 294 291 292 293 297 299 295 244 210 210 199 195 190 185 181 179 183 178 176 173 174 185 193 180 73 113 162 183 160 163 169 160 194 325 43 83 203 177 165 164 159 156 155 157 154 151 148 148 148 152 148 147 144 149 155 166 169 170 169 167 165 165 163 162 162 163 163 164 165 166 167 168 168 168 165 163 159 156 154 153 144
270 281 288 295 296 294 297 294 290 296 306 290 239 212 209 196 191 190 183 181 181 183 175 179 181 179 175 176 137 140 159 179 194 169 156 159 159 167 160 65 40 208 172 180 163 158 158 159 155 153 152 150 155 151 149 150 147 153 157 156 157 163 167 167 166 166 165 164 165 167 168 170 169 168 168 167 167 166 164 164 160 156 154 151 150
261 274 282 287 294 296 295 286 286 292 300 300 280 229 207 199 194 189 185 183 184 184 185 180 183 180 180 166 151 148 148 154 174 176 173 164 159 179 171 162 169 191 138 180 175 158 158 156 156 154 155 155 154 153 154 153 151 153 161 155 152 152 149 148 149 153 159 164 169 171 175 174 173 171 169 167 160 156 161 160 151 151 152 152 151
245 267 272 283 290 294 292 291 291 291 293 295 295 259 216 205 197 189 189 186 184 185 188 183 178 180 179 174 172 169 172 179 176 176 162 150 141 161 165 174 170 152 179 211 166 160 153 157 158 158 157 159 156 156 157 158 153 161 161 157 153 151 149 149 151 155 150 148 164 172 176 181 178 169 169 166 163 158 162 156 154 155 156 156 155
217 248 263 271 282 290 293 296 296 293 290 294 291 289 258 213 193 192 189 188 186 182 184 183 184 178 180 180 174 171 168 164 168 167 172 172 162 160 153 127 87 86 88 40 48 131 155 162 165 161 161 157 159 159 158 156 161 161 159 163 158 156 154 156 161 162 165 165 170 175 183 189 183 173 168 166 166 164 162 162 161 164 163 161 159
222 227 248 254 269 283 293 298 299 292 291 292 292 294 269 229 208 186 185 187 185 184 185 184 181 183 180 180 171 168 170 167 165 167 158 143 145 145 162 158 152 138 134 177 123 23 49 154 165 163 155 158 157 160 159 160 161 165 160 172 166 163 160 164 168 171 177 178 177 180 177 180 165 156 163 165 170 171 171 172 170 168 169 164 166
228 232 236 249 256 261 269 285 291 295 291 286 289 287 286 249 201 209 192 186 184 183 185 183 182 183 174 169 175 172 168 162 166 159 154 155 158 158 152 152 142 148 127 166 181 124 279 360 289 159 149 156 155 154 158 160 157 167 163 164 173 167 167 168 172 177 183 186 184 184 178 169 169 170 168 170 177 174 176 175 176 172 168 167 165
218 231 236 245 254 260 266 271 290 293 294 292 289 287 285 265 227 189 192 198 189 185 183 178 181 179 173 178 175 169 163 163 162 168 161 161 157 154 148 142 134 143 156 184 174 181 154 129 207 169 157 153 153 156 158 159 160 162 157 159 166 175 169 170 174 181 187 193 194 184 181 175 171 168 164 167 177 183 179 178 173 175 172 168 168
234 220 236 236 248 257 262 263 274 285 286 284 285 287 285 277 228 200 188 186 192 186 185 178 180 175 174 169 166 169 165 163 167 165 164 158 153 158 164 157 153 156 155 163 186 185 157 151 216 258 177 165 159 159 160 154 155 157 151 152 161 175 177 173 178 184 187 194 196 191 184 179 174 165 162 164 175 186 171 166 170 162 160 160 161
273 236 237 232 238 250 261 266 269 272 281 283 284 282 286 286 255 200 186 185 190 187 182 179 179 174 171 170 171 168 166 160 160 161 160 157 158 163 170 168 168 159 164 168 193 169 188 192 156 212 181 183 155 152 145 153 154 153 155 157 164 171 183 178 181 185 190 193 194 192 186 181 174 166 163 165 172 162 152 151 151 148 142 135 139
298 271 238 234 234 246 257 264 269 271 280 286 285 284 285 285 270 227 189 183 186 183 180 179 175 170 169 170 165 164 164 160 161 160 160 162 160 166 174 176 169 168 170 168 181 185 156 191 178 157 185 182 163 151 149 152 159 149 151 155 163 174 179 181 184 188 191 194 194 190 186 181 172 166 163 161 156 149 146 136 128 124 121 124 126
305 285 265 249 241 244 249 260 266 274 283 286 286 286 285 282 274 234 194 185 191 188 180 177 174 171 169 167 167 167 166 163 157 158 159 161 163 165 170 171 200 180 167 169 155 203 164 175 187 161 160 170 167 156 152 147 159 153 151 162 170 178 174 184 186 188 190 191 190 184 180 175 166 159 152 148 142 136 135 135 135 134 133 132 133
310 306 276 257 245 245 245 252 259 267 275 284 286 287 285 279 276 237 201 184 187 187 184 179 174 173 170 170 169 166 167 161 161 162 162 165 163 163 167 172 174 185 182 163 169 167 181 175 157 151 160 150 154 151 142 133 162 155 150 158 170 166 167 181 188 184 183 181 177 171 165 159 154 150 146 143 141 139 138 139 141 140 138 137 139
310 311 306 274 250 241 243 245 255 258 266 277 286 289 287 286 280 264 206 182 183 188 180 179 176 173 172 171 172 170 164 160 164 162 162 164 165 164 167 168 172 164 168 174 160 135 85 94 139 159 160 146 157 166 146 146 155 149 140 152 152 158 165 171 173 174 170 168 165 161 156 151 148 146 144 144 143 142 141 142 141 140 140 142 143
303 303 305 304 277 250 236 240 248 256 258 268 273 278 280 280 279 276 232 188 187 183 181 176 174 176 174 172 172 169 171 164 160 162 162 163 163 162 168 173 173 168 166 149 146 148 148 118 111 120 148 162 148 169 158 153 156 142 144 146 155 157 162 156 156 168 162 159 157 155 150 147 145 144 143 143 142 141 141 141 141 142 145 145 144
300 297 298 301 297 266 241 236 242 252 260 267 268 270 273 273 275 274 253 201 186 185 180 179 178 176 175 173 172 169 172 165 164 162 161 163 162 165 169 171 169 165 165 152 138 148 148 149 146 145 160 162 158 168 163 154 146 145 143 153 154 149 144 150 150 156 159 153 152 150 147 145 143 142 141 141 142 142 142 143 144 146 147 146 148
301 303 300 299 302 287 257 243 236 243 257 264 275 274 276 276 275 273 264 225 189 182 183 180 178 176 174 173 173 170 171 170 169 163 166 162 163 166 166 170 167 164 164 160 151 141 148 135 171 156 167 157 141 130 118 122 142 150 152 140 130 136 143 146 147 149 160 151 150 148 146 144 143 143 143 144 145 144 144 145 147 148 146 147 148
299 300 300 298 296 293 272 250 246 247 250 263 274 282 282 281 279 276 269 238 198 183 180 179 176 176 175 175 172 171 171 170 169 169 168 167 166 166 168 166 167 162 158 156 153 144 147 153 149 150 154 136 129 151 151 138 108 89 102 139 155 150 136 133 136 147 154 151 149 149 148 146 146 146 146 146 146 146 147 148 149 148 148 149 151
292 294 296 296 294 293 283 264 256 255 256 260 267 276 283 285 281 277 274 249 206 185 182 178 176 177 175 175 171 171 173 172 173 174 171 168 166 169 168 166 163 159 157 153 151 151 147 152 150 140 156 150 135 154 172 149 142 131 107 87 81 116 134 125 146 147 144 148 148 148 147 146 148 147 148 148 148 149 149 150 150 150 151 154 156
287 291 294 295 294 291 288 277 265 261 262 263 269 275 281 281 277 274 272 262 220 190 185 181 180 179 178 176 174 175 177 177 173 171 170 168 171 173 171 166 163 159 155 153 153 149 147 147 157 158 155 164 158 160 175 158 151 156 151 139 124 128 140 150 147 145 129 119 126 140 145 147 147 146 149 148 149 151 153 154 153 154 156 157 158
284 282 289 293 294 293 285 278 266 262 262 266 266 271 275 278 277 271 268 265 230 195 187 184 181 181 180 178 177 179 181 180 175 173 167 168 169 170 171 165 165 161 156 151 148 147 147 150 154 157 159 147 114 80 116 131 125 103 184 156 156 165 176 178 174 155 144 131 133 121 126 127 133 141 146 150 154 154 154 154 155 155 157 159 160
285 283 280 283 287 288 284 281 276 265 262 262 262 261 272 277 280 277 271 269 241 202 186 186 183 181 180 181 182 182 183 180 178 173 172 167 166 170 172 167 164 160 154 154 152 149 151 149 150 154 154 161 161 153 159 164 166 167 177 183 169 161 149 135 112 98 154 143 129 124 145 150 139 145 140 141 158 154 155 155 157 158 160 161 163
280 278 276 273 276 279 281 277 275 275 269 262 260 258 257 266 278 281 280 276 256 212 185 183 183 183 182 184 185 183 181 180 178 177 172 168 172 170 169 168 164 160 158 157 158 158 155 159 161 160 158 165 166 168 163 176 174 165 161 151 144 142 132 126 111 194 173 141 142 153 169 170 145 145 151 157 170 159 163 162 170 166 166 165 166
276 273 267 266 266 271 272 272 267 264 263 260 260 259 259 261 269 279 278 273 269 229 190 180 181 184 186 186 186 184 182 181 180 180 172 172 174 168 166 167 167 162 157 159 163 160 162 163 163 164 167 167 173 172 175 174 177 169 165 164 158 156 159 157 171 189 233 167 160 154 172 193 159 160 169 166 166 163 168 171 165 168 169 168 169
274 273 266 264 266 267 268 270 266 260 257 254 255 257 256 258 263 271 276 275 270 245 200 183 183 182 186 188 186 181 185 184 182 182 177 174 172 171 170 168 170 169 165 164 161 165 166 162 168 175 167 173 173 177 181 173 168 163 170 162 162 164 167 174 167 178 187 174 153 155 162 198 174 157 164 179 174 174 172 170 172 171 174 173 173
277 265 258 257 254 259 262 266 264 258 256 254 252 252 252 254 261 268 274 274 267 257 217 188 182 183 183 185 185 181 187 184 180 180 178 176 174 172 172 172 174 175 176 172 169 171 171 167 170 174 179 172 174 188 182 173 166 169 167 168 170 175 178 177 184 173 161 168 151 156 169 190 173 175 178 181 174 172 174 179 178 177 179 178 179
276 272 262 254 253 254 258 263 265 264 258 251 249 248 248 249 256 263 271 272 267 257 230 196 184 182 182 183 184 182 179 177 179 180 177 172 173 172 171 175 180 183 178 177 177 173 172 174 173 178 185 173 181 182 179 167 168 173 170 176 175 177 182 188 179 165 158 166 168 160 159 178 180 173 187 188 177 175 181 186 183 183 183 182 180
273 274 265 253 247 246 248 252 256 259 258 254 251 248 247 246 252 259 265 269 265 258 238 205 185 184 182 183 184 181 174 173 178 177 174 172 169 173 176 179 180 181 182 182 179 177 177 173 176 178 176 185 175 164 166 177 177 170 175 176 176 172 137 72 69 101 147 180 147 142 173 182 174 175 195 176 178 181 182 188 187 185 187 186 184
270 274 270 254 250 253 257 256 253 252 251 252 250 247 246 247 250 254 260 262 261 254 238 211 189 184 183 181 180 178 174 175 178 175 174 170 171 173 175 176 177 180 186 186 178 175 174 175 177 176 179 175 167 163 165 161 149 127 113 101 98 119 132 131 128 146 163 188 182 171 142 171 183 184 177 163 163 177 183 192 195 191 191 189 187
270 271 271 262 262 262 260 256 254 252 250 248 247 245 244 243 244 248 253 257 254 248 234 211 193 183 181 181 178 177 175 178 177 175 173 167 171 173 173 173 176 177 183 179 180 179 178 177 177 178 174 171 168 164 160 159 156 138 127 134 159 152 151 151 148 155 181 180 199 187 136 161 182 175 149 171 178 177 181 190 196 195 193 193 191
269 268 267 265 257 251 252 255 250 247 248 244 242 240 239 240 236 241 245 250 250 240 230 209 196 184 182 180 178 176 177 179 176 175 169 166 170 173 173 171 173 178 182 175 167 178 176 173 173 173 170 169 165 161 164 165 160 155 161 175 170 164 174 170 171 179 167 183 190 161 137 178 157 146 117 102 117 187 188 193 191 196 196 198 196
267 270 264 262 261 254 248 246 247 247 246 244 238 238 237 236 235 235 240 243 242 233 217 204 194 184 182 181 179 178 178 176 176 176 171 169 171 174 174 172 178 183 184 172 169 163 164 166 172 167 169 165 158 162 169 169 169 172 178 173 164 173 172 174 162 137 138 205 200 173 170 160 161 176 150 124 186 242 202 188 192 191 190 190 194